Location: Houhaj�rvi
(61.2833°N, 23.0000°E)
Time: 19:38:19
(UTC+00:00)

Cosmos 1025 Rocket - Pass Details

Date: 27 February 2020
Orbit: 594 x 618 km, 82.5° (Epoch: 03 April)

Event Time Altitude Azimuth Distance (km) Brightness Sun altitude
Rises 19:12:43 0° 346° (NNW) 2,904 7.2 -24.8°
Reaches altitude 10° 19:15:03 10° 353° (N) 1,997 6.1 -25.0°
Enters shadow 19:17:58 33° 23° (NNE) 1,045 4.2 -25.3°
